Location: Buš
(49.8034°N, 14.3824°E)
Time: 10:44:54
(UTC+00:00)

Daily predictions for brighter satellites

Satellite Brightness Start Highest point End
(mag) Time Altitude Azimuth Time Altitude Azimuth Time Altitude Azimuth
Cosmos 540 Rocket 4.1 15:43:35 10° N 15:48:17 34° NE 15:52:57 10° ESE
IGS 5A 3.4 15:44:57 10° SSE 15:48:53 61° ENE 15:52:52 10° N
Cosmos 921 Rocket 3.2 15:46:02 10° SSW 15:50:24 82° WNW 15:54:52 10° NNE
Cosmos 1802 Rocket 4.1 15:44:39 10° S 15:51:04 82° E 15:57:32 10° N
Cosmos 1908 Rocket 3.6 15:48:01 10° S 15:52:27 89° E 15:56:56 10° N
Cosmos 1763 Rocket 3.8 15:48:39 10° NNW 15:53:39 43° ENE 15:58:33 10° SE
Cosmos 1975 Rocket 3.4 15:50:55 10° N 15:55:05 43° ENE 15:59:15 10° SSE
SWARM A 4.2 15:53:46 10° N 15:57:06 83° E 16:00:25 10° S
CORIOLIS 4.2 15:53:32 10° SSE 15:58:49 63° ENE 16:04:06 10° N
Cosmos 1140 Rocket 3.6 15:55:46 10° S 16:00:49 57° ESE 16:05:53 10° NNE
IRS-1C 4.2 15:59:00 10° SE 16:04:11 55° ENE 16:09:23 10° N
Cosmos 1812 3.9 16:03:24 10° ESE 16:04:48 13° E 16:05:46 11° ENE
SMAP 3.1 16:00:38 10° SSE 16:05:14 63° ENE 16:09:51 10° N
Cosmos 2058 4.0 16:03:26 10° NNE 16:06:31 21° ENE 16:09:36 10° ESE
Cosmos 1943 Rocket 3.0 16:02:12 10° SSE 16:07:06 32° ESE 16:11:59 10° NE
Cosmos 2016 Rocket 4.1 16:01:26 10° S 16:07:44 90° SSE 16:14:10 10° N
Tsikada Rocket 4.1 16:01:21 10° N 16:07:48 81° E 16:14:10 10° SSE
Cosmos 2082 Rocket 2.7 16:04:49 10° NNW 16:10:02 37° NE 16:15:14 10° ESE
Meteor 1-28 Rocket 3.0 16:07:42 10° NNE 16:11:05 80° WNW 16:14:26 10° SSW
Cosmos 1269 Rocket 4.0 16:08:29 10° SSW 16:13:44 81° ESE 16:19:02 10° NNE
Aureole 3 Rocket 3.7 16:12:48 10° SE 16:15:02 19° E 16:16:59 12° NE
Cosmos 2278 Rocket 2.9 16:10:27 10° S 16:15:30 35° ESE 16:20:36 10° NE
CZ-2D R/B 4.4 16:13:24 10° ESE 16:16:50 26° ENE 16:20:20 10° N
Landsat 7 3.8 16:13:08 10° SSE 16:17:42 61° ENE 16:22:19 10° N
SL-16 R/B 2.9 16:15:12 10° NNE 16:21:27 71° WNW 16:27:39 10° SSW
Thor Agena Rocket 4.0 16:17:00 10° S 16:22:15 69° WSW 16:27:32 10° NNW
Cosmos 2251 Rocket 4.3 16:23:29 10° SSE 16:28:02 30° E 16:32:12 12° NE
Cosmos 2344 4.1 16:21:50 10° NW 16:29:00 44° NNE 16:37:27 12° E
TIMED 4.4 16:24:58 10° SSW 16:29:14 79° ESE 16:33:31 10° NNE
CZ-4C R/B 3.4 16:27:55 10° W 16:32:13 31° NNW 16:37:37 10° NE
Cosmos 841 Rocket 4.3 16:28:31 10° N 16:33:06 29° NE 16:37:10 12° ESE
ATLAS 2AS CENTAUR R/B 3.6 16:28:02 10° NW 16:34:00 31° NNE 16:38:09 17° ENE
UNK 3.8 16:29:51 10° NNE 16:34:30 85° WNW 16:39:06 10° SSW
Nadezhda 4 Rocket 4.4 16:28:45 10° N 16:34:39 40° ENE 16:40:27 10° SE
YAOGAN 1 3.3 16:31:39 10° SE 16:35:20 29° ENE 16:39:02 10° N
SAR-Lupe-1 4.1 16:31:47 10° SSE 16:35:20 82° WSW 16:38:56 10° NNW
SJ 16-02 2.5 16:34:59 10° SSE 16:38:17 22° E 16:39:07 21° E
COSMOS 2406 3.7 16:37:20 10° NNW 16:42:37 38° NE 16:47:00 14° ESE
Cosmos 2084 Rocket 4.2 16:39:01 10° WSW 16:43:04 46° NW 16:46:22 15° NNE
ATLAS CENTAUR R/B 3.4 16:43:41 10° WNW 16:45:48 15° NNW 16:47:55 10° N
SAR-Lupe-4 4.4 16:42:32 10° S 16:46:02 52° W 16:49:33 10° NNW
ARIANE 5 R/B 2.8 16:41:40 10° S 16:46:37 69° WSW 16:51:37 10° NNW
Cosmos 468 Rocket 3.9 16:41:45 10° NNW 16:46:57 63° ENE 16:52:03 10° SE
Resurs 1-3 4.1 16:43:10 10° SE 16:47:05 35° ENE 16:51:01 10° N
Cosmos 1833 Rocket 4.4 16:42:16 10° NW 16:47:21 35° WSW 16:52:25 10° S
Cosmos 1862 3.5 16:44:09 10° N 16:47:33 36° ENE 16:50:56 10° SE
Meteor 2-12 Rocket 4.5 16:46:40 10° NNW 16:52:48 83° W 16:58:52 10° S
USA 215 4.0 16:46:42 10° SE 16:53:04 55° SW 16:59:30 10° WNW
Cosmos 1536 Rocket 3.7 16:52:36 10° N 16:56:56 50° ENE 17:01:14 10° SSE
IRS-P3 4.3 16:52:00 10° SSE 16:57:20 79° WSW 17:02:43 10° NNW
SAR-Lupe-3 4.1 16:55:51 18° N 16:57:38 63° WNW 17:00:15 10° SSW
Cosmos 1190 Rocket 4.3 16:53:59 10° S 16:59:00 45° ESE 17:02:12 21° NE
Okean 2 Rocket 3.6 16:55:13 10° SSE 16:59:12 35° E 17:00:34 28° NE
MOS 1 Rocket 3.1 16:55:12 10° SSE 16:59:31 90° NNW 17:04:04 10° NNW
ATLAS 5 CENTAUR R/B 4.1 16:57:48 10° WNW 17:01:37 26° WSW 17:06:05 10° S
Timation 2 Rocket 4.1 16:55:39 10° SSW 17:02:32 83° ESE 17:09:02 12° NNE
Meteor 2-3 Rocket 4.2 16:57:22 10° N 17:02:40 37° ENE 17:07:27 12° SE
Resurs 01 Rocket 3.1 17:08:57 21° NNE 17:08:57 21° NNE 17:11:01 10° N
CZ-4 R/B 4.3 17:05:22 10° SSE 17:09:20 87° WSW 17:13:20 10° NNW
Cosmos 1602 3.2 17:06:47 10° NNW 17:09:51 77° W 17:12:54 10° S
RESURS DK-1 3.4 17:06:16 10° NW 17:10:06 44° WSW 17:13:54 10° S
Cosmos 407 Rocket 3.6 17:05:18 10° SSW 17:10:29 75° WNW 17:15:22 12° NNE
Cosmos 1954 Rocket 4.2 17:06:57 10° S 17:11:59 47° ESE 17:14:07 30° NE
ISS -3.9 17:13:42 10° WSW 17:17:02 76° SSE 17:17:12 73° SE
USA 281 3.7 17:15:06 30° E 17:17:16 38° NE 17:23:13 10° NNW
Cosmos 1869 4.2 17:14:13 10° SSW 17:17:35 43° WNW 17:20:58 10° N
SPOT 1/Viking Rocket 3.5 17:13:20 10° SSE 17:18:31 85° WSW 17:23:46 10° NNW
COSMO-SKYMED 1 2.4 17:21:26 48° NE 17:22:15 60° E 17:26:20 10° S
Cosmos 1464 Rocket 3.9 17:18:33 10° S 17:24:50 79° E 17:31:05 10° NNE
SL-12 R/B(2) 4.4 17:21:02 10° SW 17:29:09 84° NW 17:36:59 18° NE
BREEZE-M DEB (TANK) 2.6 17:28:15 10° WSW 17:31:04 77° SSE 17:32:21 48° E
Cosmos 1400 Rocket 2.6 17:27:41 10° S 17:31:12 72° SSE 17:31:12 72° SSE
Spot 4 Rocket 4.1 17:27:14 10° S 17:32:20 76° WSW 17:37:28 10° NNW
Cosmos 1812 3.8 17:34:20 10° SW 17:36:58 31° WNW 17:37:34 28° NW
Cosmos 2034 Rocket 3.9 17:31:55 10° S 17:38:02 68° E 17:44:17 10° NNE
Cosmos 2151 Rocket 3.8 17:37:38 10° SSW 17:42:07 71° WNW 17:45:29 18° N
Cosmos 2058 4.2 17:39:06 10° NNW 17:42:48 38° W 17:46:31 10° SSW
Cosmos 44 Rocket 3.5 17:41:00 10° SW 17:45:46 66° NW 17:47:06 45° NNE
SKYMED 2 4.2 17:45:23 15° N 17:48:49 54° WNW 17:53:03 10° SSW
Helios 1A Rocket 4.1 17:51:58 29° SW 17:51:58 29° SW 17:53:47 10° SSW
Cosmos 1943 Rocket 2.9 17:45:10 10° SW 17:50:36 50° NW 17:54:09 21° NNE
Cosmos 1092 Rocket 3.8 17:45:23 10° N 17:51:40 70° ENE 17:54:58 29° SSE
Okean 1 Rocket 3.0 17:47:34 10° S 17:51:43 78° SW 17:51:43 78° SW
Sich 1 Rocket 3.6 17:48:29 10° SSW 17:53:01 82° W 17:53:29 71° NNW
PSLV R/B 4.2 17:49:12 10° S 17:53:07 49° W 17:57:04 10° NNW
Cosmos 2082 Rocket 3.2 17:48:54 10° NW 17:54:13 45° WSW 17:59:31 10° S
Cosmos 2026 Rocket 3.8 17:52:04 10° N 17:58:11 85° E 18:04:20 10° S
Meteor 2-1 Rocket 4.2 17:53:14 10° S 17:59:08 81° E 18:02:22 29° NNE
Cosmos 2278 Rocket 3.1 17:54:01 10° SW 17:59:27 47° NW 18:02:47 22° N
NOAA 6 4.3 17:54:40 10° S 17:59:47 67° WSW 18:04:55 10° NNW
BREEZE-M DEB (TANK) 3.6 17:59:35 10° WSW 18:02:55 79° SSE 18:03:16 74° ESE
BREEZE-M DEB (TANK) 3.5 18:00:45 10° W 18:03:51 75° N 18:04:09 72° NNE
Geosat 4.1 18:04:10 54° S 18:05:10 70° WSW 18:10:12 10° NNW
Cosmos 2369 Rocket 4.5 18:04:16 10° S 18:04:20 10° S 18:04:20 10° S
Cosmos 2251 Rocket 4.4 18:04:57 10° SW 18:10:02 46° WNW 18:12:38 27° N
YAOGAN 1 4.2 18:07:15 10° SSW 18:11:07 33° W 18:15:01 10° NNW
Cosmos 371 Rocket 3.6 18:08:40 10° SSW 18:12:52 61° WSW 18:12:52 61° WSW
Cosmos 304 Rocket 4.2 18:09:51 10° SW 18:13:57 58° WSW 18:13:57 58° WSW
Cosmos 841 Rocket 4.2 18:10:04 10° NNW 18:15:09 52° WSW 18:17:15 32° SSW
SJ 16-02 2.3 18:11:59 10° SW 18:15:42 44° W 18:15:42 44° W
CZ-4C R/B 4.0 18:17:54 10° NW 18:22:21 23° N 18:22:36 23° N
ATLAS 2AS CENTAUR R/B 2.6 18:19:11 10° NW 18:25:35 71° NNE 18:25:35 71° NNE
COSMOS 2406 4.1 18:21:36 10° NW 18:27:01 46° WSW 18:29:08 32° SSW
Cosmos 1656 Rocket 4.4 18:24:48 10° SSW 18:28:33 45° SW 18:28:33 45° SW
Resurs 01 Rocket 4.0 18:46:22 18° NW 18:46:22 18° NW 18:47:42 10° NNW
Cosmos 2344 4.1 18:36:03 10° NW 18:43:59 70° SW 18:47:32 44° SSE
USA 281 3.6 19:02:00 58° W 19:02:00 58° W 19:08:03 10° NNW
